Location: Asheville, NC
(35.6000°N, 82.5500°W)
Time: 19:50:40
(UTC-04:00)

NO-84 - Pass Details

Date: 18 March 2018
Orbit: 334 x 555 km, 55.0° (Epoch: 14 June)

Event Time Altitude Azimuth Distance (km) Brightness Sun altitude
Rises 21:44:45 0° 239° (WSW) 2,690 ? -25.7°
Reaches altitude 10° 21:47:02 10° 246° (WSW) 1,821 ? -26.1°
Maximum altitude 21:51:00 42° 318° (NW) 806 ? -26.9°
Enters shadow 21:51:21 41° 333° (NNW) 820 ? -26.9°
